Location: Launay
(47.2429°N, 1.5727°E)
Time: 22:47:07
(UTC+00:00)

Cosmos 2278 - Pass Details

Date: 19 May 2025
Orbit: 839 x 850 km, 71.1° (Epoch: 12 June)

Event Time Altitude Azimuth Distance (km) Brightness Sun altitude
Rises 23:06:49 0° 332° (NNW) 3,404 8.1 -22.1°
Reaches altitude 10° 23:09:16 10° 333° (NNW) 2,465 7.1 -22.1°
Maximum altitude 23:14:56 88° 244° (WSW) 847 3.6 -22.3°
Enters shadow 23:16:32 49° 156° (SSE) 1,070 3.8 -22.3°
